Temperature
15 14 14 14 14 13 13 13 13 13 13 13 13 13 13 13 14 14 14 14 14 14 14 14 14 14 14 14 14 14 14 14 14 14 14 14 14 14 14 14 14 14 15
14 14 13 13 13 13 12 12 12 12 12 13 13 13 13 13 13 13 13 13 13 13 13 13 13 13 13 13 13 13 14 14 14 14 14 14 14 14 14 14 14 14 14
14 13 13 13 12 12 12 12 12 12 12 12 12 12 12 12 13 13 13 13 13 13 13 13 13 13 13 13 13 13 13 13 14 13 13 13 13 13 13 13 13 14 14
13 13 12 12 12 11 11 11 11 11 11 11 11 11 12 12 12 12 12 12 12 12 12 12 13 13 13 12 12 13 13 13 13 13 13 13 13 13 13 13 13 13 13
13 13 12 12 12 12 11 11 11 11 11 11 11 11 11 11 12 12 12 12 12 12 12 12 12 12 12 12 12 12 13 13 13 12 12 12 12 12 12 12 12 12 12
13 13 13 12 12 12 11 11 11 11 11 11 11 11 11 11 11 11 11 11 12 12 12 12 12 12 12 12 12 12 12 12 12 12 12 11 12 12 12 12 12 12 12
13 13 13 12 12 12 12 11 11 11 11 11 11 11 11 12 11 11 11 11 11 11 11 11 11 11 11 11 11 11 12 12 12 11 11 11 11 11 12 12 12 12 12
13 13 13 12 12 12 12 11 11 11 11 11 11 12 12 12 11 11 11 11 11 11 11 11 11 11 11 11 11 11 11 11 11 11 11 11 11 11 11 11 11 11 11
14 13 13 13 12 12 12 12 11 11 11 11 11 12 12 11 11 11 11 11 11 11 11 11 11 11 11 11 11 11 11 11 11 11 11 11 11 11 11 11 11 11 11
14 14 13 13 12 12 12 12 11 11 11 11 11 12 12 11 11 11 11 11 11 11 11 11 11 11 11 10 10 11 11 11 11 11 11 11 11 11 10 10 10 10 10
14 14 13 13 12 12 12 12 11 11 11 11 11 11 11 11 11 11 11 11 11 11 11 10 10 10 10 10 10 10 10 11 11 11 11 11 11 10 10 10 10 9 9
14 13 13 13 12 12 12 12 11 11 11 11 11 11 11 11 11 11 11 11 11 11 10 10 10 10 10 10 10 10 10 10 10 10 10 10 10 10 9 9 9 9 10
13 13 13 13 12 12 12 12 11 11 11 11 11 10 10 11 11 11 11 11 10 10 10 10 10 10 10 10 10 10 10 10 9 9 9 9 9 9 9 9 9 9 9
13 13 12 12 12 12 12 12 11 11 11 11 11 11 11 11 11 11 11 10 10 10 10 10 10 10 10 10 10 10 9 9 9 9 9 9 9 9 9 9 8 9 9
13 12 12 12 12 12 12 12 11 11 11 11 11 11 11 10 11 11 10 10 10 10 10 10 10 10 10 10 10 10 9 9 8 8 8 8 8 8 8 8 8 8 8
12 12 12 12 12 12 11 11 11 11 12 12 12 11 11 11 11 10 10 10 10 10 10 10 10 10 11 10 10 10 9 9 8 8 8 8 8 8 8 8 8 7 8
12 12 12 12 12 12 11 11 11 11 11 11 11 11 11 11 11 10 10 10 10 10 10 10 11 11 11 10 10 10 9 9 8 8 8 7 7 7 7 7 7 7 7
12 12 12 12 12 12 12 11 11 11 11 11 11 11 11 11 10 10 10 10 10 10 10 10 11 11 11 10 10 10 9 9 8 8 8 7 7 7 7 7 7 7 7
11 12 12 12 12 12 12 12 11 11 11 10 10 10 10 10 10 10 10 10 10 10 10 10 11 11 10 10 10 9 9 9 8 8 8 7 7 7 7 7 7 7 7
11 12 12 12 12 13 13 12 12 11 11 10 10 10 10 9 9 9 10 10 10 10 10 11 11 11 10 10 10 9 9 9 8 8 8 7 7 7 7 7 7 7 6
11 11 12 12 12 13 13 13 12 12 11 11 10 10 10 10 9 9 10 10 10 10 10 11 11 11 10 10 10 9 9 9 9 8 8 8 7 7 6 6 6 6 6
10 11 12 12 12 13 13 13 13 12 12 11 11 10 10 9 9 9 9 10 10 10 11 11 11 11 11 10 10 10 10 9 9 8 8 8 7 7 6 6 6 6 5
10 11 12 12 12 12 13 13 13 12 12 12 11 11 10 10 10 10 10 10 10 11 11 11 11 11 11 11 10 10 10 10 9 9 8 7 7 7 6 6 5 5 5
9 11 12 12 12 12 12 12 12 12 12 12 12 11 11 11 11 11 11 11 11 11 11 11 11 11 11 11 10 10 10 10 9 9 8 7 7 6 6 6 5 5 5
9 11 12 12 12 12 12 12 13 13 13 12 12 12 11 11 11 11 12 12 12 11 11 11 11 11 11 11 11 10 10 10 10 9 8 8 7 6 6 5 5 5 4
9 10 11 12 12 12 13 12 13 13 13 13 13 13 12 12 11 11 12 12 12 12 11 11 11 11 11 11 11 11 10 10 10 9 9 8 7 6 5 5 5 4 4
Wind_Speed
5 5 6 7 6 5 4 4 4 5 4 3 2 1 1 2 3 2 2 2 2 2 1 2 4 4 4 4 3 3 2 2 3 3 3 3 4 4 4 4 3 4 4
3 4 4 5 5 5 5 6 6 6 6 6 5 4 2 1 1 1 1 3 5 5 5 6 5 5 5 5 4 4 3 3 2 3 4 4 4 5 5 5 3 3 1
1 2 2 3 4 5 6 6 7 7 7 6 6 5 4 3 3 5 5 7 8 8 7 7 8 7 7 5 5 6 5 5 4 3 3 3 3 5 6 6 5 4 3
1 1 1 2 3 4 5 5 6 6 6 6 5 5 5 4 5 7 7 8 8 9 9 8 8 8 7 7 7 8 7 5 5 5 5 5 6 7 7 7 6 4 4
3 2 3 3 3 4 4 4 4 4 4 4 4 4 4 4 5 6 7 9 8 8 8 8 8 9 10 8 8 7 8 8 7 7 7 7 7 7 8 6 6 5 3
4 4 4 6 6 5 3 2 1 1 1 1 1 2 4 6 9 11 8 7 7 7 6 6 8 8 7 8 10 11 10 9 8 8 7 7 8 7 7 7 5 5 4
5 5 5 8 8 7 5 4 2 1 1 1 3 6 7 8 12 12 10 7 8 7 8 7 9 10 10 6 4 5 8 11 9 7 6 6 6 7 8 8 6 4 3
6 6 6 8 9 9 7 5 4 3 3 2 4 7 6 7 11 12 10 7 7 7 8 8 9 9 10 9 5 6 6 6 6 5 3 3 4 5 7 8 7 4 2
8 7 7 9 10 10 9 7 5 4 4 4 5 7 7 5 8 10 10 4 6 8 9 9 9 8 12 12 7 6 5 4 2 1 3 5 6 7 6 7 9 8 6
8 7 8 9 10 11 11 9 6 5 5 5 6 7 7 6 5 8 9 2 3 6 7 8 11 9 10 11 7 7 6 6 8 6 4 3 2 3 6 6 6 7 7
7 7 7 9 10 11 10 9 8 7 7 6 7 7 7 7 5 7 9 4 2 2 6 6 5 7 9 9 7 5 5 7 7 5 4 5 5 6 6 6 5 4 4
7 7 8 10 11 12 11 11 10 9 8 7 7 7 6 6 6 6 7 7 6 5 6 6 5 5 6 6 5 7 11 10 5 5 5 6 5 5 6 6 5 4 4
8 8 8 10 10 10 13 13 11 10 10 9 9 9 8 7 5 6 5 6 8 6 6 6 6 4 1 1 2 6 7 6 6 6 6 6 5 5 5 6 7 7 6
9 8 8 9 10 10 10 11 11 12 11 10 10 9 8 8 7 6 5 4 4 4 5 5 4 3 2 3 3 2 2 4 4 4 5 5 5 5 5 5 5 6 5
10 9 10 11 10 10 11 8 10 9 9 9 8 9 9 8 8 8 6 4 4 4 5 4 4 5 5 4 3 3 4 4 4 4 5 5 5 5 5 5 5 5 5
11 11 11 11 10 10 10 7 7 5 8 11 10 10 8 12 17 15 13 10 9 7 3 5 5 4 3 3 3 4 5 5 4 4 4 5 5 4 5 4 5 5 5
12 11 11 12 11 12 11 11 8 6 9 10 12 14 15 18 17 15 13 9 6 5 3 5 3 3 3 4 3 4 5 5 2 3 4 4 4 4 4 4 4 5 5
15 14 13 12 12 13 12 13 12 12 9 6 7 14 19 18 16 15 12 8 4 4 5 5 3 4 3 3 4 4 4 4 2 2 3 3 4 4 4 5 4 4 5
16 13 13 12 11 12 12 13 13 14 13 12 9 7 11 14 13 11 9 6 7 7 8 6 5 5 5 5 4 3 3 4 3 2 1 2 2 3 4 4 4 5 4
14 17 15 13 12 11 11 12 12 12 13 13 13 12 11 10 8 8 7 8 7 8 8 6 5 6 5 5 5 4 3 3 4 2 2 2 2 3 4 5 4 5 5
13 16 16 14 12 12 11 11 11 12 12 12 14 16 18 14 13 12 12 11 10 9 7 6 6 6 6 5 5 6 5 3 3 2 1 1 1 2 2 3 4 4 5
11 14 15 15 12 10 10 11 11 12 14 14 12 15 22 15 13 13 13 12 12 10 7 6 6 6 6 7 7 6 6 5 4 3 2 0 1 0 1 3 3 4 4
11 13 14 14 12 12 12 12 11 12 13 13 13 15 16 14 14 13 14 13 11 9 7 7 6 6 6 5 5 5 6 5 5 5 4 2 1 0 0 1 3 4 4
11 11 13 14 13 13 13 12 12 13 13 14 13 15 17 14 13 13 12 11 11 10 8 8 9 9 9 6 6 8 8 7 7 6 6 4 1 1 0 0 2 3 3
10 10 10 13 13 13 13 13 13 12 13 13 13 14 17 16 14 12 10 9 10 10 11 9 8 9 11 11 9 9 10 12 12 10 8 5 4 3 1 2 2 2 2
9 8 8 11 12 12 12 13 13 12 12 13 12 12 14 16 15 13 10 8 8 8 9 9 10 10 11 12 14 14 15 16 16 13 10 5 5 4 4 2 3 2 3
Wind_Direction
337 347 346 341 345 360 10 13 21 25 26 24 360 339 213 194 203 212 241 206 160 135 105 93 74 60 34 7 6 5 358 349 322 334 9 16 15 347 334 316 289 227 215
354 359 3 4 15 25 37 42 41 38 32 30 21 16 7 346 29 55 53 107 110 101 85 74 65 62 46 29 3 5 354 345 342 354 13 14 15 353 343 328 327 302 237
349 3 18 34 41 43 47 46 44 35 26 22 19 11 12 28 60 77 88 91 85 76 69 65 59 52 38 17 20 15 11 18 20 35 33 24 15 5 1 355 6 355 345
221 226 109 75 72 69 59 47 42 34 20 13 21 25 37 52 74 86 88 84 81 77 71 65 57 52 33 11 36 21 18 18 37 46 46 34 23 10 14 2 7 12 26
249 228 174 154 129 107 82 58 40 33 26 6 15 32 68 76 78 96 103 96 90 91 90 86 78 74 60 50 53 32 27 31 35 40 39 34 21 12 7 352 358 354 51
240 236 184 172 162 150 138 117 69 13 17 6 14 71 78 76 62 68 89 94 90 85 89 104 105 78 76 71 71 60 52 49 40 39 34 26 18 5 350 344 347 352 360
231 233 195 183 177 174 175 174 186 186 172 194 118 93 85 65 60 58 55 89 79 70 62 54 68 56 41 34 66 83 65 59 56 56 45 24 15 354 344 342 345 355 5
227 228 205 190 186 180 185 184 182 171 166 160 118 106 100 74 54 49 40 86 82 75 68 67 70 49 27 16 36 58 63 52 46 55 41 9 9 346 345 348 347 359 45
228 218 205 192 187 182 184 183 180 176 176 161 130 122 110 86 52 39 25 83 91 80 69 54 65 56 26 21 33 41 43 27 9 311 281 293 311 327 345 2 3 5 2
234 216 199 187 185 185 183 181 178 178 180 168 147 141 136 123 72 45 22 19 115 116 107 86 66 60 40 31 28 30 22 353 339 330 304 291 318 16 27 29 15 3 359
227 206 191 185 185 184 180 179 178 184 184 174 156 153 145 133 108 63 37 28 4 133 129 109 81 61 51 34 28 34 356 321 308 316 348 21 25 28 22 14 8 2 355
220 203 190 185 190 186 180 183 186 185 179 171 163 160 147 140 125 102 75 55 23 50 85 102 110 88 59 31 21 2 351 348 347 8 23 22 22 22 356 347 348 343 330
214 202 190 189 194 177 177 182 184 184 183 177 175 174 166 151 128 128 112 73 56 70 89 114 137 140 85 289 314 343 359 16 8 13 17 14 6 359 351 360 360 347 348
211 201 189 190 186 176 178 181 183 185 188 183 182 179 168 160 161 165 164 146 122 134 145 145 170 193 256 284 269 285 82 52 6 10 12 4 359 0 6 9 360 349 360
207 200 193 191 188 180 181 183 193 190 191 184 183 175 168 171 160 158 176 164 169 146 152 170 197 204 214 209 159 101 73 50 20 16 21 13 4 360 2 9 6 1 6
207 201 196 192 187 182 174 152 59 107 137 152 158 158 155 146 139 127 116 112 108 119 164 216 208 203 169 119 95 103 97 69 11 15 38 18 359 357 3 7 19 10 1
209 201 196 193 188 185 179 170 152 93 80 103 127 133 138 144 143 137 132 125 118 129 205 246 215 161 131 125 109 89 92 97 24 23 45 18 357 0 9 0 27 16 354
214 205 197 196 189 187 183 181 176 170 162 139 111 132 141 146 145 142 138 139 163 194 229 236 186 144 132 117 105 94 98 101 64 11 65 33 0 356 6 356 14 26 343
216 209 201 198 192 187 183 183 182 181 180 171 149 139 144 141 135 138 150 190 197 198 219 227 186 159 157 143 130 137 143 132 130 281 95 70 14 358 3 348 351 5 343
220 212 200 198 193 189 186 185 184 181 182 177 171 166 161 164 169 173 192 209 219 210 215 209 178 161 165 157 153 174 192 162 166 197 105 77 44 14 352 346 356 358 356
224 210 201 198 195 191 190 189 185 184 183 180 178 173 172 184 188 188 194 204 218 226 211 195 175 173 175 166 173 188 203 195 170 154 118 100 68 24 338 335 350 2 1
238 208 200 201 195 191 189 189 186 184 185 185 181 170 170 187 196 194 196 202 212 223 202 185 191 189 191 188 189 192 200 200 188 167 152 150 144 151 333 343 1 0 349
253 214 194 194 196 188 190 193 190 187 188 189 180 169 178 194 199 199 196 200 206 209 200 184 198 206 199 184 181 192 205 201 180 160 158 169 245 257 351 349 344 330 350
261 226 194 188 195 197 194 194 193 191 190 192 184 173 182 197 205 204 198 197 197 198 198 193 195 210 210 189 190 201 207 198 173 159 160 164 194 277 4 287 300 327 348
258 235 201 185 192 197 193 194 196 195 192 193 191 182 182 192 205 212 203 197 194 194 197 198 197 205 211 207 208 210 200 182 174 163 155 167 186 185 200 271 276 302 311
252 238 211 189 188 196 194 192 196 198 195 194 194 189 184 188 196 207 207 203 204 204 204 205 206 205 208 214 220 207 181 173 169 166 166 170 182 187 188 211 248 259 280
Height
1470 1467 1464 1461 1458 1455 1453 1452 1451 1450 1450 1451 1451 1452 1453 1456 1458 1460 1462 1464 1466 1468 1470 1471 1473 1474 1475 1476 1476 1477 1477 1477 1476 1476 1475 1474 1472 1471 1470 1469 1467 1466 1465
1468 1465 1462 1458 1456 1453 1451 1450 1449 1449 1449 1449 1450 1451 1453 1455 1456 1458 1461 1463 1465 1467 1469 1471 1472 1473 1474 1474 1475 1475 1475 1475 1475 1474 1473 1472 1471 1470 1468 1467 1465 1464 1462
1466 1464 1461 1458 1455 1453 1451 1450 1449 1449 1449 1450 1451 1452 1453 1455 1456 1458 1461 1463 1465 1467 1469 1470 1471 1472 1473 1474 1474 1474 1474 1474 1473 1473 1473 1472 1471 1469 1467 1466 1464 1462 1460
1465 1463 1460 1458 1456 1454 1452 1451 1451 1451 1451 1452 1452 1453 1454 1456 1457 1460 1463 1464 1466 1468 1469 1471 1472 1473 1474 1474 1474 1474 1474 1474 1474 1474 1473 1473 1471 1469 1467 1465 1463 1461 1459
1464 1462 1459 1458 1456 1455 1454 1453 1453 1453 1454 1454 1455 1456 1457 1459 1461 1463 1465 1466 1468 1470 1471 1472 1473 1474 1475 1475 1475 1475 1475 1474 1474 1474 1474 1473 1472 1469 1467 1466 1465 1462 1459
1461 1460 1458 1457 1456 1456 1456 1456 1456 1456 1457 1458 1458 1459 1461 1462 1464 1466 1468 1469 1471 1472 1474 1475 1475 1476 1477 1477 1477 1477 1477 1477 1476 1476 1476 1475 1473 1471 1469 1468 1466 1463 1460
1458 1458 1457 1456 1455 1456 1457 1457 1458 1459 1460 1461 1462 1463 1464 1466 1468 1470 1471 1472 1473 1474 1475 1476 1477 1478 1478 1479 1479 1479 1479 1479 1479 1479 1477 1476 1475 1473 1470 1468 1466 1464 1461
1455 1455 1454 1454 1454 1455 1456 1458 1459 1460 1462 1463 1464 1466 1467 1469 1471 1473 1474 1475 1476 1477 1478 1478 1478 1479 1480 1480 1481 1481 1481 1481 1480 1480 1479 1477 1476 1474 1472 1470 1468 1465 1463
1451 1451 1451 1451 1451 1453 1455 1457 1459 1461 1463 1464 1466 1468 1469 1471 1473 1475 1476 1477 1478 1479 1479 1480 1480 1481 1481 1482 1482 1482 1482 1481 1481 1481 1480 1478 1477 1475 1473 1470 1467 1465 1464
1447 1447 1447 1447 1448 1450 1452 1455 1458 1460 1463 1465 1466 1469 1471 1472 1474 1476 1477 1478 1479 1480 1480 1481 1482 1482 1482 1483 1483 1482 1482 1482 1482 1481 1480 1479 1478 1476 1474 1472 1469 1467 1465
1442 1443 1443 1444 1445 1447 1450 1453 1456 1459 1462 1464 1466 1469 1471 1473 1475 1476 1478 1479 1480 1481 1481 1482 1482 1483 1483 1483 1483 1483 1483 1482 1482 1481 1480 1479 1478 1476 1474 1473 1471 1469 1466
1437 1438 1439 1440 1442 1444 1447 1450 1453 1456 1460 1463 1465 1468 1470 1472 1474 1476 1478 1479 1481 1481 1482 1482 1483 1483 1483 1484 1484 1484 1483 1482 1482 1481 1480 1479 1478 1476 1475 1473 1471 1470 1468
1431 1432 1434 1436 1438 1440 1443 1446 1450 1453 1457 1460 1463 1466 1468 1470 1473 1475 1477 1479 1480 1481 1482 1482 1483 1483 1484 1484 1484 1484 1484 1483 1482 1481 1481 1480 1479 1477 1475 1473 1471 1470 1468
1425 1427 1429 1431 1434 1436 1439 1443 1446 1449 1453 1457 1460 1463 1466 1468 1471 1473 1475 1477 1479 1480 1481 1482 1483 1483 1484 1484 1485 1485 1485 1484 1484 1483 1482 1481 1479 1478 1476 1474 1472 1470 1468
1418 1421 1423 1426 1429 1432 1436 1439 1443 1447 1450 1453 1457 1460 1463 1466 1469 1471 1474 1476 1477 1479 1481 1482 1483 1483 1484 1485 1486 1486 1485 1485 1484 1484 1482 1481 1480 1478 1477 1475 1473 1471 1470
1411 1414 1417 1420 1424 1428 1432 1436 1440 1444 1447 1451 1454 1458 1461 1464 1467 1469 1472 1474 1476 1478 1480 1481 1482 1483 1485 1486 1486 1486 1485 1484 1484 1484 1483 1482 1481 1479 1478 1476 1474 1472 1471
1404 1407 1411 1414 1418 1423 1427 1431 1435 1440 1443 1447 1451 1454 1457 1461 1464 1467 1470 1472 1474 1476 1478 1479 1481 1483 1484 1485 1486 1486 1486 1485 1485 1484 1483 1482 1481 1480 1478 1477 1475 1473 1472
1398 1401 1405 1408 1412 1417 1422 1426 1430 1434 1438 1443 1447 1451 1454 1458 1461 1464 1467 1469 1471 1474 1476 1478 1480 1482 1483 1484 1485 1486 1486 1485 1485 1484 1483 1483 1481 1480 1479 1478 1476 1474 1473
1390 1394 1398 1403 1407 1412 1416 1421 1426 1430 1434 1438 1442 1446 1450 1454 1458 1461 1463 1466 1468 1471 1473 1475 1478 1480 1481 1483 1484 1485 1485 1485 1484 1484 1483 1482 1481 1480 1479 1478 1476 1475 1473
1383 1387 1392 1397 1402 1406 1411 1416 1420 1425 1429 1434 1437 1440 1444 1449 1452 1456 1459 1462 1466 1468 1471 1473 1475 1477 1479 1480 1481 1483 1484 1484 1483 1483 1482 1481 1480 1479 1478 1477 1476 1475 1474
1375 1381 1386 1391 1396 1400 1405 1410 1415 1419 1424 1428 1432 1435 1439 1443 1447 1451 1454 1458 1461 1465 1468 1470 1472 1475 1476 1478 1479 1480 1481 1482 1482 1481 1481 1480 1479 1478 1477 1476 1475 1474 1473
1368 1373 1379 1384 1390 1395 1400 1405 1409 1414 1419 1423 1428 1431 1435 1440 1444 1448 1451 1454 1457 1461 1464 1467 1469 1471 1473 1475 1476 1477 1478 1478 1479 1478 1478 1478 1477 1476 1476 1475 1474 1473 1472
1360 1365 1372 1378 1384 1389 1394 1399 1404 1409 1414 1419 1423 1425 1430 1435 1440 1444 1447 1450 1453 1457 1460 1463 1465 1468 1470 1471 1472 1474 1474 1475 1475 1475 1475 1475 1475 1474 1474 1473 1472 1472 1471
1352 1358 1364 1371 1378 1383 1389 1394 1399 1404 1409 1413 1418 1421 1425 1430 1435 1439 1443 1446 1449 1453 1456 1458 1461 1463 1466 1467 1468 1469 1470 1471 1471 1471 1471 1471 1471 1471 1471 1470 1470 1470 1469
1347 1352 1359 1365 1371 1378 1383 1389 1394 1399 1403 1408 1412 1416 1420 1425 1430 1434 1438 1442 1445 1448 1451 1454 1456 1459 1461 1462 1464 1465 1466 1466 1467 1466 1466 1466 1467 1467 1467 1468 1468 1468 1467
1343 1347 1354 1360 1366 1372 1378 1383 1389 1394 1398 1403 1408 1412 1416 1420 1425 1429 1433 1437 1440 1443 1446 1449 1451 1453 1455 1457 1459 1460 1460 1461 1462 1462 1462 1462 1462 1463 1464 1464 1465 1465 1465